Location: Auckland
(36.8500°S, 174.7800°E)
Time: 09:33:17
(UTC+12:00)

ISS - Pass Details

Date: 22 March 2026
Orbit: 416 x 424 km, 51.6° (Epoch: 11 April)

Event Time Altitude Azimuth Distance (km) Brightness Sun altitude
Exits shadow 05:34:48 24° 180° (S) 934 -1.9 -22.6°
Drops below altitude 10° 05:36:46 10° 150° (SSE) 1,521 -0.3 -22.2°
Sets 05:39:04 0° 138° (SE) 2,392 1.0 -21.8°
